Weather History for Waupaca, WI

Change the Weather History Date:

Monday, January 20, 2014

  Actual Average Record
Temperature  
Mean Temperature 13 °F -  
Max Temperature 23 °F 27 °F 46 °F (1968)
Min Temperature 2 °F 5 °F -28 °F (1985)
Degree Days  
Heating Degree Days 52    
Moisture  
Dew Point 5 °F    
Average Humidity 67    
Maximum Humidity 86    
Minimum Humidity 49    
Precipitation  
Precipitation 0.00 in - - ()
Sea Level Pressure  
Sea Level Pressure 29.96 in    
Wind  
Wind Speed 6 mph (NNE)    
Max Wind Speed 14 mph    
Max Gust Speed 24 mph    
Visibility 8 miles    
Events Snow    
Averages and records for this station are not official NWS values.
T = Trace of Precipitation, MM = Missing Value Source: NWS Daily Summary

Daily Weather History Graph

Daily Weather History Graph

Search for Another Location

Airport:

Trip Planner

Search our weather history database for the weather conditions in past years. The results will help you decide how hot, cold, wet, or windy it might be!

Date:

Astronomy

Jan. 20, 2014 Rise Set
Actual Time 7:25 AM CST 4:49 PM CST
Civil Twilight 6:53 AM CST 5:21 PM CST
Nautical Twilight 6:17 AM CST 5:56 PM CST
Astronomical Twilight 5:43 AM CST 6:31 PM CST
Moon 9:36 PM CST (1/20) 9:13 AM CST (1/20)
Length of Visible Light 10h 27m
Length of Day
9h 23m
Waning Gibbous, 82% of the Moon is Illuminated
Jan 20
Waning Gibbous
Jan 23
Last Quarter
Jan 30
New
Feb 6
First Quarter
Feb 14
Full

Hourly Weather History & Observations

Time (CST) Temp. Windchill Dew Point Humidity Pressure Visibility Wind Dir Wind Speed Gust Speed Precip Events Conditions
12:15 AM 23.7 °F 16.6 °F 20.1 °F 86% 29.63 in 10.0 mi NNE 5.8 mph - N/A   Overcast
12:35 AM 23.0 °F 14.7 °F 19.4 °F 86% 29.64 in 10.0 mi NNE 6.9 mph - N/A   Overcast
12:55 AM 22.6 °F 14.3 °F 18.9 °F 85% 29.66 in 10.0 mi NNE 6.9 mph - N/A   Overcast
1:15 AM 22.1 °F 14.7 °F 18.3 °F 85% 29.67 in 10.0 mi NE 5.8 mph - N/A   Overcast
1:35 AM 21.9 °F 17.2 °F 18.1 °F 85% 29.68 in 10.0 mi NNE 3.5 mph - N/A   Overcast
1:55 AM 21.6 °F 16.8 °F 17.4 °F 84% 29.69 in 10.0 mi East 3.5 mph - N/A   Overcast
2:15 AM 21.2 °F - 17.2 °F 85% 29.72 in 10.0 mi Calm Calm - N/A   Overcast
2:35 AM 21.2 °F - 17.1 °F 84% 29.74 in 10.0 mi Calm Calm - N/A   Overcast
2:55 AM 21.2 °F 14.9 °F 16.7 °F 83% 29.74 in 10.0 mi ENE 4.6 mph - N/A   Overcast
3:15 AM 21.0 °F 16.2 °F 16.7 °F 83% 29.74 in 7.0 mi ENE 3.5 mph - N/A Snow Light Snow
3:35 AM 20.7 °F 14.2 °F 16.3 °F 83% 29.75 in 10.0 mi East 4.6 mph - N/A Snow Light Snow
3:55 AM 20.3 °F 12.5 °F 15.8 °F 83% 29.76 in 10.0 mi ENE 5.8 mph - N/A Snow Light Snow
4:15 AM 19.9 °F 13.4 °F 15.1 °F 81% 29.75 in 5.0 mi ENE 4.6 mph - N/A Snow Light Snow
4:35 AM 19.4 °F 10.4 °F 14.4 °F 81% 29.76 in 5.0 mi East 6.9 mph - N/A Snow Light Snow
4:55 AM 19.4 °F 14.3 °F 14.4 °F 81% 29.76 in 5.0 mi East 3.5 mph - N/A Snow Light Snow
5:15 AM 19.2 °F 12.5 °F 14.2 °F 81% 29.76 in 4.0 mi ENE 4.6 mph - N/A Snow Light Snow
5:35 AM 18.9 °F 12.1 °F 14.0 °F 81% 29.77 in 4.0 mi ENE 4.6 mph - N/A Snow Light Snow
5:55 AM 18.3 °F 11.5 °F 13.1 °F 80% 29.78 in 7.0 mi ENE 4.6 mph - N/A Snow Light Snow
6:15 AM 18.3 °F 11.5 °F 13.1 °F 80% 29.78 in 7.0 mi ENE 4.6 mph - N/A Snow Light Snow
6:35 AM 17.4 °F 8.0 °F 12.0 °F 79% 29.78 in 10.0 mi East 6.9 mph - N/A Snow Light Snow
6:55 AM 16.7 °F 7.2 °F 11.3 °F 79% 29.81 in 10.0 mi ENE 6.9 mph - N/A Snow Light Snow
7:15 AM 16.7 °F 8.3 °F 10.8 °F 77% 29.83 in 10.0 mi NE 5.8 mph - N/A Snow Light Snow
7:35 AM 15.4 °F 4.6 °F 8.8 °F 75% 29.84 in 10.0 mi ENE 8.1 mph - N/A Snow Light Snow
7:55 AM 15.1 °F 7.7 °F 8.2 °F 74% 29.85 in 10.0 mi NE 4.6 mph - N/A Snow Light Snow
8:15 AM 14.9 °F 7.5 °F 9.1 °F 78% 29.86 in 0.8 mi ENE 4.6 mph - N/A Snow Light Snow
8:35 AM 14.4 °F 3.3 °F 9.0 °F 79% 29.87 in 0.8 mi East 8.1 mph - N/A Snow Light Snow
8:55 AM 14.0 °F 2.0 °F 8.4 °F 78% 29.88 in 1.8 mi ENE 9.2 mph - N/A Snow Light Snow
9:15 AM 14.0 °F 3.9 °F 7.7 °F 76% 29.89 in 1.8 mi NE 6.9 mph - N/A Snow Light Snow
9:35 AM 14.4 °F 6.9 °F 7.2 °F 73% 29.92 in 5.0 mi ENE 4.6 mph - N/A Snow Light Snow
9:55 AM 14.5 °F 7.1 °F 6.8 °F 71% 29.93 in 7.0 mi ENE 4.6 mph - N/A Snow Light Snow
10:15 AM 15.3 °F 6.6 °F 5.9 °F 67% 29.95 in 10.0 mi NNE 5.8 mph - N/A Snow Light Snow
10:35 AM 14.9 °F 3.1 °F 5.9 °F 68% 29.96 in 10.0 mi NE 9.2 mph - N/A   Overcast
10:55 AM 15.3 °F 5.4 °F 5.7 °F 66% 29.96 in 10.0 mi NNE 6.9 mph - N/A Snow Light Snow
11:15 AM 15.6 °F 5.9 °F 5.9 °F 66% 29.96 in 10.0 mi NE 6.9 mph - N/A   Overcast
11:35 AM 15.4 °F 5.6 °F 5.4 °F 64% 29.96 in 10.0 mi NE 6.9 mph - N/A   Overcast
11:55 AM 15.6 °F 4.9 °F 5.2 °F 63% 29.96 in 10.0 mi NNE 8.1 mph - N/A   Overcast
12:15 PM 15.6 °F 7.0 °F 4.6 °F 62% 29.96 in 10.0 mi North 5.8 mph - N/A   Overcast
12:35 PM 15.6 °F 5.9 °F 4.1 °F 60% 29.96 in 10.0 mi NNE 6.9 mph - N/A   Overcast
12:55 PM 15.8 °F 6.1 °F 3.2 °F 58% 29.97 in 10.0 mi NNE 6.9 mph - N/A   Overcast
1:15 PM 15.8 °F 8.6 °F 3.0 °F 57% 29.98 in 10.0 mi NE 4.6 mph - N/A   Overcast
1:35 PM 16.0 °F - 3.2 °F 57% 29.97 in 10.0 mi Calm Calm - N/A   Overcast
1:55 PM 16.2 °F 7.6 °F 4.1 °F 59% 29.98 in 10.0 mi NNE 5.8 mph - N/A   Overcast
2:15 PM 16.2 °F 6.5 °F 4.6 °F 61% 29.99 in 7.0 mi NNE 6.9 mph - N/A   Overcast
2:35 PM 15.8 °F 7.2 °F 5.7 °F 64% 30.00 in 7.0 mi NNE 5.8 mph - N/A   Overcast
2:55 PM 15.6 °F 5.9 °F 6.8 °F 68% 30.01 in 3.0 mi North 6.9 mph - N/A   Haze
3:15 PM 15.6 °F 5.9 °F 7.3 °F 70% 30.02 in 3.0 mi North 6.9 mph - N/A   Haze
3:35 PM 15.4 °F 8.1 °F 7.3 °F 70% 30.03 in 4.0 mi North 4.6 mph - N/A   Haze
3:55 PM 15.1 °F 3.3 °F 4.5 °F 63% 30.04 in 7.0 mi North 9.2 mph - N/A   Overcast
4:15 PM 14.5 °F 3.6 °F 0.9 °F 55% 30.05 in 10.0 mi North 8.1 mph - N/A   Scattered Clouds
4:35 PM 13.8 °F 3.7 °F 0.9 °F 56% 30.06 in 10.0 mi North 6.9 mph - N/A   Mostly Cloudy
4:55 PM 13.1 °F 1.8 °F -0.9 °F 54% 30.07 in 10.0 mi North 8.1 mph - N/A   Scattered Clouds
5:15 PM 12.6 °F -1.4 °F -3.3 °F 49% 30.09 in 10.0 mi North 11.5 mph 16.1 mph N/A   Scattered Clouds
5:35 PM 11.7 °F -1.7 °F -4.4 °F 49% 30.10 in 10.0 mi North 10.4 mph 16.1 mph N/A   Clear
5:55 PM 10.8 °F -1.1 °F -4.7 °F 50% 30.12 in 10.0 mi North 8.1 mph 17.3 mph N/A   Scattered Clouds
6:15 PM 10.4 °F -1.5 °F -4.9 °F 50% 30.13 in 10.0 mi North 8.1 mph - N/A   Scattered Clouds
6:35 PM 10.0 °F -5.9 °F -5.8 °F 49% 30.13 in 10.0 mi North 13.8 mph 20.7 mph N/A   Mostly Cloudy
6:55 PM 9.9 °F -4.7 °F -5.8 °F 49% 30.14 in 10.0 mi North 11.5 mph 19.6 mph N/A   Scattered Clouds
7:15 PM 9.3 °F -6.8 °F -5.8 °F 50% 30.15 in 10.0 mi North 13.8 mph - N/A   Scattered Clouds
7:35 PM 9.0 °F -5.9 °F -5.8 °F 51% 30.16 in 10.0 mi North 11.5 mph 18.4 mph N/A   Scattered Clouds
7:55 PM 8.6 °F -6.3 °F -5.8 °F 52% 30.17 in 10.0 mi North 11.5 mph 17.3 mph N/A   Scattered Clouds
8:15 PM 8.2 °F -6.8 °F -6.0 °F 52% 30.17 in 10.0 mi North 11.5 mph 18.4 mph N/A   Mostly Cloudy
8:35 PM 7.7 °F -5.8 °F -6.0 °F 54% 30.18 in 10.0 mi North 9.2 mph - N/A   Scattered Clouds
8:55 PM 7.2 °F -7.3 °F -6.9 °F 53% 30.19 in 10.0 mi North 10.4 mph 16.1 mph N/A   Clear
9:15 PM 6.3 °F -10.7 °F -8.5 °F 51% 30.21 in 10.0 mi North 13.8 mph 24.2 mph N/A   Clear
9:35 PM 5.7 °F -10.7 °F -8.5 °F 52% 30.21 in 10.0 mi North 12.7 mph 19.6 mph N/A   Clear
9:55 PM 5.2 °F -12.1 °F -8.7 °F 53% 30.22 in 10.0 mi North 13.8 mph 20.7 mph N/A   Clear
10:15 PM 5.0 °F -9.1 °F -8.5 °F 54% 30.23 in 10.0 mi North 9.2 mph 19.6 mph N/A   Clear
10:35 PM 4.3 °F -10.0 °F -8.9 °F 55% 30.24 in 10.0 mi North 9.2 mph - N/A   Clear
10:55 PM 3.9 °F -9.4 °F -8.9 °F 55% 30.24 in 10.0 mi North 8.1 mph - N/A   Clear
11:15 PM 3.2 °F -10.3 °F -9.2 °F 56% 30.25 in 10.0 mi NNW 8.1 mph - N/A   Clear
11:35 PM 3.0 °F -8.0 °F -9.4 °F 56% 30.25 in 10.0 mi NNW 5.8 mph - N/A   Clear
11:55 PM 2.7 °F -12.0 °F -9.2 °F 58% 30.25 in 10.0 mi NNW 9.2 mph - N/A   Clear